This is the latest recevied weather packets stored in our database for station/object DL7MAP-13. If no packets are shown the sender has not sent any weather packets the latest 10 day(s).
| Time | Temp. | Humidity | Pressure | Rain* | Wind** | Luminosity | Snow |
|---|---|---|---|---|---|---|---|
| 1777260486 | -0.56° C | 83% | 1019 hPa | - | - | - | - |
| 1777259587 | -0.56° C | 82% | 1018.9 hPa | - | - | - | - |
| 1777258687 | -0.56° C | 82% | 1018.9 hPa | - | - | - | - |
| 1777257786 | -0.56° C | 81% | 1018.9 hPa | - | - | - | - |
| 1777256886 | 0° C | 80% | 1019.1 hPa | - | - | - | - |
| 1777255987 | 0° C | 80% | 1019.3 hPa | - | - | - | - |
| 1777255086 | 0.56° C | 79% | 1019.2 hPa | - | - | - | - |
| 1777254187 | 0.56° C | 77% | 1019.3 hPa | - | - | - | - |
| 1777253287 | 1.11° C | 75% | 1019.4 hPa | - | - | - | - |
| 1777252387 | 2.22° C | 73% | 1019.4 hPa | - | - | - | - |
| 1777251486 | 3.33° C | 70% | 1019.3 hPa | - | - | - | - |
| 1777250586 | 3.33° C | 69% | 1019.6 hPa | - | - | - | - |
| 1777249686 | 3.89° C | 68% | 1019.5 hPa | - | - | - | - |
| 1777248786 | 3.33° C | 69% | 1019.7 hPa | - | - | - | - |
| 1777247886 | 3.33° C | 71% | 1019.5 hPa | - | - | - | - |
| 1777246986 | 2.78° C | 69% | 1019.5 hPa | - | - | - | - |
| 1777246086 | 3.33° C | 68% | 1019.4 hPa | - | - | - | - |
| 1777245187 | 3.33° C | 66% | 1019.6 hPa | - | - | - | - |
| 1777244287 | 3.89° C | 64% | 1019.8 hPa | - | - | - | - |
| 1777243387 | 4.44° C | 65% | 1019.7 hPa | - | - | - | - |
| 1777242487 | 4.44° C | 64% | 1019.5 hPa | - | - | - | - |
| 1777241587 | 4.44° C | 60% | 1019.4 hPa | - | - | - | - |
| 1777240686 | 5° C | 58% | 1019.6 hPa | - | - | - | - |
| 1777239787 | 5.56° C | 57% | 1019.6 hPa | - | - | - | - |
| 1777238886 | 6.11° C | 56% | 1019.7 hPa | - | - | - | - |
* Rain since midnight (hover to see other rain measurements)
** Current wind speed in m/s (hover to see current wind gust speed)